TimeMST,TemperatureF,Dew PointF,Humidity,Sea Level PressureIn,VisibilityMPH,Wind Direction,Wind SpeedMPH,Gust SpeedMPH,PrecipitationIn,Events,Conditions,WindDirDegrees,DateUTC
12:54 AM,33.1,10.9,40,30.10,9.0,West,3.5,-,N/A,,Clear,280,2012-11-21 07:54:00
1:54 AM,35.1,14.0,42,30.09,10.0,Calm,Calm,-,N/A,,Clear,0,2012-11-21 08:54:00
2:54 AM,33.1,10.9,40,30.09,10.0,Calm,Calm,-,N/A,,Clear,0,2012-11-21 09:54:00
3:54 AM,33.1,14.0,46,30.08,10.0,Calm,Calm,-,N/A,,Clear,0,2012-11-21 10:54:00
4:54 AM,33.1,15.1,48,30.11,10.0,Calm,Calm,-,N/A,,Clear,0,2012-11-21 11:54:00
5:54 AM,33.1,15.1,48,30.16,10.0,Calm,Calm,-,N/A,,Clear,0,2012-11-21 12:54:00
6:54 AM,33.1,16.0,50,30.17,10.0,Calm,Calm,-,N/A,,Clear,0,2012-11-21 13:54:00
7:54 AM,33.1,15.1,48,30.19,9.0,Calm,Calm,-,N/A,,Clear,0,2012-11-21 14:54:00
8:54 AM,43.0,19.9,40,30.15,10.0,Calm,Calm,-,N/A,,Clear,0,2012-11-21 15:54:00
9:54 AM,51.1,21.9,32,30.13,10.0,Calm,Calm,-,N/A,,Clear,0,2012-11-21 16:54:00
10:54 AM,59.0,27.0,29,30.12,10.0,Calm,Calm,-,N/A,,Clear,0,2012-11-21 17:54:00
11:54 AM,62.1,28.9,29,30.07,10.0,Calm,Calm,-,N/A,,Clear,0,2012-11-21 18:54:00
12:54 PM,64.9,28.9,26,30.03,10.0,Calm,Calm,-,N/A,,Clear,0,2012-11-21 19:54:00
1:54 PM,66.0,27.0,23,29.99,10.0,NNE,3.5,-,N/A,,Clear,30,2012-11-21 20:54:00
2:54 PM,66.9,27.0,22,29.98,10.0,ENE,3.5,-,N/A,,Clear,70,2012-11-21 21:54:00
3:54 PM,66.9,26.1,21,29.97,10.0,ENE,5.8,-,N/A,,Clear,60,2012-11-21 22:54:00
4:54 PM,64.0,26.1,24,29.98,10.0,Calm,Calm,-,N/A,,Clear,0,2012-11-21 23:54:00
5:54 PM,57.9,26.1,30,30.02,10.0,South,3.5,-,N/A,,Clear,180,2012-11-22 00:54:00
6:54 PM,53.1,23.0,31,30.07,10.0,WSW,8.1,-,N/A,,Clear,250,2012-11-22 01:54:00
7:54 PM,48.9,23.0,36,30.09,10.0,WSW,8.1,-,N/A,,Clear,240,2012-11-22 02:54:00
8:54 PM,50.0,25.0,38,30.07,10.0,SW,6.9,-,N/A,,Clear,220,2012-11-22 03:54:00
9:54 PM,44.1,23.0,43,30.06,10.0,South,5.8,-,N/A,,Clear,180,2012-11-22 04:54:00
10:54 PM,43.0,19.9,40,30.03,10.0,South,9.2,-,N/A,,Clear,180,2012-11-22 05:54:00
11:54 PM,41.0,18.0,40,30.03,10.0,SSE,6.9,-,N/A,,Clear,160,2012-11-22 06:54:00